This is the latest recevied weather packets stored in our database for station/object IR3AS. If no packets are shown the sender has not sent any weather packets the latest 10 day(s).
| Time | Temp. | Humidity | Pressure | Rain* | Wind** | Luminosity | Snow |
|---|---|---|---|---|---|---|---|
| 1788013495 | 17.78° C | 62% | 868.4 hPa | 0 mm | - | - | - |
| 1788013247 | 17.78° C | 60% | 868.4 hPa | 0 mm | - | - | - |
| 1788013195 | 17.78° C | 60% | 868.4 hPa | 0 mm | - | - | - |
| 1788012895 | 17.78° C | 61% | 868.3 hPa | 0 mm | - | - | - |
| 1788012596 | 17.78° C | 58% | 868.2 hPa | 0 mm | - | - | - |
| 1788012295 | 18.89° C | 55% | 868 hPa | 0 mm | - | - | - |
| 1788011995 | 19.44° C | 53% | 868.3 hPa | 0 mm | - | - | - |
| 1788011696 | 20° C | 52% | 868.4 hPa | 0 mm | - | - | - |
| 1788011395 | 21.11° C | 51% | 868.3 hPa | 0 mm | - | - | - |
| 1788011095 | 21.67° C | 49% | 868 hPa | 0 mm | - | - | - |
| 1788010795 | 22.78° C | 47% | 868.3 hPa | 0 mm | - | - | - |
| 1788010495 | 23.33° C | 48% | 868.1 hPa | 0 mm | - | - | - |
| 1788010195 | 22.78° C | 49% | 868.2 hPa | 0 mm | - | - | - |
| 1788009895 | 22.78° C | 48% | 868.3 hPa | 0 mm | - | - | - |
| 1788009595 | 23.33° C | 45% | 868.6 hPa | 0 mm | - | - | - |
| 1788009297 | 23.89° C | 47% | 868.6 hPa | 0 mm | - | - | - |
| 1788008995 | 24.44° C | 45% | 868.5 hPa | 0 mm | - | - | - |
| 1788008695 | 23.89° C | 47% | 868.5 hPa | 0 mm | - | - | - |
| 1788008395 | 23.33° C | 47% | 868.5 hPa | 0 mm | - | - | - |
| 1788008096 | 23.89° C | 44% | 868.7 hPa | 0 mm | - | - | - |
| 1788007795 | 23.89° C | 47% | 868.7 hPa | 0 mm | - | - | - |
| 1788007495 | 23.89° C | 46% | 868.7 hPa | 0 mm | - | - | - |
| 1788007195 | 23.89° C | 48% | 868.7 hPa | 0 mm | - | - | - |
| 1788006937 | 23.89° C | 47% | 868.5 hPa | 0 mm | - | - | - |
| 1788006897 | 23.89° C | 47% | 868.5 hPa | 0 mm | - | - | - |
* Rain latest hour (hover to see other rain measurements)
** Current wind speed in m/s (hover to see current wind gust speed)